Date String (YYYY-MM-DD hh:mm:ss) UTC,Instrument flags,absolute air pressure of the measurement (hPa),sample flow rate (lpm),inlet stack bypass flow (lpm),air temperature of the measurement (°C),ambient temperature measured by the external sensor (°C),aerosol sample conditioner tube jacket temperature (°C),OPC LED temperature (°C),internal box temperature (°C),relative humidity of the measurement (%),span deviation,mass concentration of particles derived from Lorenz-Mie calculation of OPC scattering (μg/m³),mass concentration of particles derived from Lorenz-Mie calculation of OPC scattering (μg/m³),mass concentration of particles derived from Lorenz-Mie calculation of OPC scattering (μg/m³)
DateTimeUTC,F1_M11,P_M11,Q1_M11,Q2_M11,T1_M11,T2_M11,T3_M11,T4_M11,T5_M11,U1_M11,ZSPAN_M11,X0_M11,X2_M11,X1_M11
2023-07-24 15:00:00,SystemResetWarning,0835.7,4.99,000.00,029.1,027.7,000.0,037.5,030.8,29.4,0000.0,0020.63,0005.23,0004.07
2023-07-24 15:01:00,SystemResetWarning,0835.7,4.99,000.00,029.1,027.8,000.0,037.5,030.9,29.1,0000.0,0021.48,0005.26,0004.07
2023-07-24 15:02:00,SystemResetWarning,0835.7,5.00,000.00,029.1,026.5,000.0,037.4,030.7,29.6,0000.0,0021.02,0005.24,0004.06
2023-07-24 15:03:00,SystemResetWarning,0835.7,5.01,000.00,029.1,025.4,000.0,037.3,030.6,30.0,0000.0,0019.35,0005.24,0004.07
2023-07-24 15:04:00,SystemResetWarning,0835.7,5.01,000.00,029.0,025.5,000.0,037.2,030.5,30.1,0000.0,0020.02,0005.24,0004.08
2023-07-24 15:05:00,SystemResetWarning,0835.7,5.01,000.00,029.0,025.9,000.0,037.3,030.4,28.6,0000.0,0020.56,0005.18,0004.07
2023-07-24 15:06:00,SystemResetWarning,0835.7,4.99,000.00,029.0,026.3,000.0,037.3,030.4,27.5,0000.0,0019.68,0005.10,0004.07
2023-07-24 15:07:00,SystemResetWarning,0835.8,4.99,000.00,029.0,026.6,000.0,037.4,030.5,28.7,0000.0,0020.25,0005.05,0004.06
2023-07-24 15:08:00,SystemResetWarning,0835.7,5.00,000.00,029.0,027.0,000.0,037.4,030.6,30.8,0000.0,0019.12,0005.05,0004.06
2023-07-24 15:09:00,SystemResetWarning,0835.7,5.00,000.00,029.0,027.3,000.0,037.4,030.7,30.4,0000.0,0018.57,0005.02,0004.06
2023-07-24 15:10:00,SystemResetWarning,0835.7,5.02,000.00,029.1,027.5,000.0,037.4,030.7,29.2,0000.0,0018.81,0004.99,0004.07
2023-07-24 15:11:00,SystemResetWarning,0835.8,5.00,000.00,029.1,027.7,000.0,037.5,030.8,28.8,0000.0,0018.85,0004.98,0004.08
2023-07-24 15:12:00,SystemResetWarning,0835.7,4.98,000.00,029.1,026.6,000.0,037.4,030.7,28.0,0000.0,0016.78,0004.89,0004.08
2023-07-24 15:13:00,SystemResetWarning,0835.7,5.01,000.00,029.0,025.4,000.0,037.3,030.5,28.7,0000.0,0016.52,0004.87,0004.09
2023-07-24 15:14:00,SystemResetWarning,0835.7,5.01,000.00,029.0,025.4,000.0,037.2,030.4,31.1,0000.0,0016.87,0004.89,0004.09
2023-07-24 15:15:00,SystemResetWarning,0835.7,5.00,000.00,028.9,025.7,000.0,037.2,030.3,31.3,0000.0,0015.96,0004.91,0004.10
2023-07-24 15:16:00,SystemResetWarning,0835.7,5.00,000.00,028.9,026.1,000.0,037.3,030.4,30.6,0000.0,0014.99,0004.93,0004.12
2023-07-24 15:17:00,SystemResetWarning,0835.7,5.00,000.00,028.9,026.5,000.0,037.3,030.4,30.7,0000.0,0015.46,0004.94,0004.12
2023-07-24 15:18:00,SystemResetWarning,0835.8,4.99,000.00,028.9,026.9,000.0,037.3,030.5,31.4,0000.0,0014.12,0004.95,0004.11
2023-07-24 15:19:00,SystemResetWarning,0835.8,4.99,000.00,029.0,027.2,000.0,037.4,030.6,32.6,0000.0,0013.63,0004.92,0004.12
2023-07-24 15:20:00,SystemResetWarning,0835.8,4.99,000.00,029.0,027.4,000.0,037.4,030.7,29.1,0000.0,0014.45,0004.94,0004.12
2023-07-24 15:21:00,SystemResetWarning,0835.8,5.00,000.00,029.0,027.6,000.0,037.4,030.7,28.2,0000.0,0013.75,0004.96,0004.12
2023-07-24 15:22:00,SystemResetWarning,0835.8,4.99,000.00,029.1,026.7,000.0,037.3,030.7,29.0,0000.0,0013.24,0004.92,0004.11
2023-07-24 15:23:00,SystemResetWarning,0835.8,5.00,000.00,029.0,025.4,000.0,037.2,030.4,25.0,0000.0,0013.42,0004.93,0004.12
2023-07-24 15:24:00,SystemResetWarning,0835.8,5.00,000.00,028.9,025.3,000.0,037.1,030.3,26.4,0000.0,0013.87,0004.99,0004.12
2023-07-24 15:25:00,SystemResetWarning,0835.8,5.01,000.00,028.9,025.6,000.0,037.2,030.2,26.0,0000.0,0013.62,0004.97,0004.13
2023-07-24 15:26:00,SystemResetWarning,0835.8,5.00,000.00,028.8,026.0,000.0,037.2,030.3,26.5,0000.0,0013.58,0004.95,0004.13
2023-07-24 15:27:00,SystemResetWarning,0835.9,5.00,000.00,028.9,026.4,000.0,037.3,030.4,28.4,0000.0,0014.98,0005.00,0004.13
2023-07-24 15:28:00,SystemResetWarning,0835.8,5.00,000.00,028.9,026.8,000.0,037.3,030.5,25.8,0000.0,0016.23,0005.12,0004.14
2023-07-24 15:29:00,SystemResetWarning,0835.8,5.00,000.00,028.9,027.1,000.0,037.3,030.5,25.2,0000.0,0016.91,0005.18,0004.17
2023-07-24 15:30:00,SystemResetWarning,0835.9,5.00,000.00,028.9,027.4,000.0,037.3,030.6,26.1,0000.0,0017.46,0005.22,0004.18
2023-07-24 15:31:00,SystemResetWarning,0835.8,4.99,000.00,029.0,027.6,000.0,037.3,030.7,26.3,0000.0,0016.56,0005.27,0004.20
2023-07-24 15:32:00,SystemResetWarning,0835.8,4.99,000.00,029.0,026.9,000.0,037.3,030.7,27.9,0000.0,0017.66,0005.32,0004.22
2023-07-24 15:33:00,SystemResetWarning,0835.8,5.00,000.00,028.9,025.5,000.0,037.2,030.4,28.2,0000.0,0018.99,0005.45,0004.23
2023-07-24 15:34:00,SystemResetWarning,0835.8,5.01,000.00,028.9,025.3,000.0,037.1,030.3,29.7,0000.0,0019.57,0005.51,0004.23
2023-07-24 15:35:00,SystemResetWarning,0835.8,5.01,000.00,028.8,025.6,000.0,037.1,030.2,30.1,0000.0,0019.76,0005.57,0004.25
2023-07-24 15:36:00,SystemResetWarning,0835.8,4.99,000.00,028.8,026.0,000.0,037.2,030.2,30.1,0000.0,0019.70,0005.59,0004.27
2023-07-24 15:37:00,SystemResetWarning,0835.8,5.01,000.00,028.8,026.4,000.0,037.2,030.3,29.5,0000.0,0020.19,0005.61,0004.28
2023-07-24 15:38:00,SystemResetWarning,0835.8,5.00,000.00,028.8,026.8,000.0,037.2,030.4,29.6,0000.0,0018.31,0005.56,0004.29
2023-07-24 15:39:00,SystemResetWarning,0835.8,5.00,000.00,028.9,027.1,000.0,037.3,030.5,28.2,0000.0,0016.48,0005.48,0004.30
2023-07-24 15:40:00,SystemResetWarning,0835.8,4.99,000.00,028.9,027.4,000.0,037.3,030.6,31.3,0000.0,0016.78,0005.44,0004.30
2023-07-24 15:41:00,SystemResetWarning,0835.8,5.01,000.00,029.0,027.4,000.0,037.3,030.7,33.1,0000.0,0016.48,0005.41,0004.31
2023-07-24 15:42:00,SystemResetWarning,0835.8,4.99,000.00,028.9,026.3,000.0,037.2,030.5,32.0,0000.0,0015.94,0005.33,0004.30
2023-07-24 15:43:00,SystemResetWarning,0835.8,5.01,000.00,028.9,025.2,000.0,037.1,030.3,34.1,0000.0,0014.59,0005.24,0004.28
2023-07-24 15:44:00,SystemResetWarning,0835.8,5.01,000.00,028.8,025.4,000.0,037.0,030.2,34.1,0000.0,0013.26,0005.14,0004.26
2023-07-24 15:45:00,SystemResetWarning,0835.8,4.98,000.00,028.8,025.7,000.0,037.1,030.2,33.4,0000.0,0012.52,0005.08,0004.27
2023-07-24 15:46:00,SystemResetWarning,0835.8,5.00,000.00,028.8,026.1,000.0,037.1,030.3,33.5,0000.0,0011.50,0004.98,0004.27
2023-07-24 15:47:00,SystemResetWarning,0835.8,5.02,000.00,028.8,026.5,000.0,037.2,030.3,33.6,0000.0,0011.36,0004.94,0004.27
2023-07-24 15:48:00,SystemResetWarning,0835.8,4.99,000.00,028.8,026.9,000.0,037.2,030.4,33.3,0000.0,0011.01,0004.91,0004.26
2023-07-24 15:49:00,SystemResetWarning,0835.8,4.99,000.00,028.9,027.2,000.0,037.2,030.5,33.7,0000.0,0011.90,0004.93,0004.27
2023-07-24 15:50:00,SystemResetWarning,0835.8,5.01,000.00,028.9,027.5,000.0,037.2,030.6,34.2,0000.0,0012.07,0004.94,0004.28
2023-07-24 15:51:00,SystemResetWarning,0835.8,5.01,000.00,028.9,027.1,000.0,037.2,030.6,34.5,0000.0,0010.70,0004.93,0004.28
2023-07-24 15:52:00,SystemResetWarning,0835.8,4.98,000.00,028.9,025.7,000.0,037.1,030.3,33.4,0000.0,0011.38,0004.95,0004.29
2023-07-24 15:53:00,SystemResetWarning,0835.7,5.02,000.00,028.8,025.1,000.0,037.0,030.2,33.2,0000.0,0013.64,0004.99,0004.30
2023-07-24 15:54:00,SystemResetWarning,0835.6,4.99,000.00,028.8,025.4,000.0,037.0,030.1,33.5,0000.0,0014.64,0005.02,0004.31
2023-07-24 15:55:00,SystemResetWarning,0835.6,4.99,000.00,028.7,025.8,000.0,037.1,030.1,34.2,0000.0,0014.62,0005.05,0004.34
2023-07-24 15:56:00,SystemResetWarning,0835.6,5.00,000.00,028.7,026.2,000.0,037.1,030.3,33.8,0000.0,0015.33,0005.07,0004.35
2023-07-24 15:57:00,SystemResetWarning,0835.7,5.01,000.00,028.8,026.6,000.0,037.1,030.3,33.4,0000.0,0016.45,0005.13,0004.36
2023-07-24 15:58:00,SystemResetWarning,0835.6,5.00,000.00,028.8,027.0,000.0,037.2,030.4,32.8,0000.0,0017.00,0005.18,0004.38
2023-07-24 15:59:00,SystemResetWarning,0835.6,5.00,000.00,028.8,027.3,000.0,037.2,030.5,33.4,0000.0,0017.06,0005.26,0004.42
